STARLINK-35738, 67116

Orbit data source: Space-Track

STARLINK-35738, 67116 is a payload satellite owned by SpaceX/Seattle (US) in LEO that was launched on Mon, 15 Dec 2025 UTC via an FALCON 9 launch vehicle from the Air Force Eastern Test Range (AFETR). Payload-class satellites include a variety of spacecraft equipped with specific instruments for various scientific and technological missions. These include communications satellites like Starlink; space stations such as the ISS; scientific satellites like the Hubble; Earth observation satellites from companies like Planet Labs, Umbra, and HawkEye 360; GPS; miniature CubeSats for education and research; and military/defense satellites.

Not visible in the next 10 days
Identifier
67116, 2025-299Q
Orbit
LEO
Country
Flag of USUS
Related business
Manufacturer
SpaceX/Seattle
Mission
Operational spacecraft
Bus & Motor
STARLINK V2MO, Unknown motor
Mass
575 kg wet, ~530 kg dry
Launch date (UTC)
2025-12-15 (1 week ago)
Launch vehicle
FALCON 9
Launch site
Air Force Eastern Test Range (AFETR)
Object type
Payload
Rocket body
Debris
Shape & HBR
Unknown
Radar Cross Section
RCS unknown

Expand to show TLE details & history
Last TLE update: 9 hours ago

TLE from 9 hours ago
0 STARLINK-35738
1 67116U 25299Q   25355.25001157 -.01434222  60877-3 -33568-2 0  9997
2 67116  42.9994 264.7824 0002404 274.0224  64.7590 15.96111780  2073
Epoch: 2025-12-21T06:00Z
TLE epoch observation values (Epoch: 2025-12-21T06:00:00.999Z)
Latitude
-14.41151°
Longitude
68.80997°
Altitude
287.267 km
Speed
7.737 km/s
True Right ascension
16h 35m 31s
True Declination
-14° 19' 23"
Sunlit
Object was in daylight at epoch
Visualization orbit readout
Latitude
Unknown
Longitude
Unknown
Altitude
Unknown
Speed
Unknown
Apparent Right ascension
Unknown
Apparent Declination
Unknown
Sunlit
N/A
Visualization observer readout
Local Sidereal Time
13:57:31
Azimuth
Unknown
Elevation
Unknown
Doppler factor
Unknown
Orbital elements
Apogee altitude
288.823 km
Perigee altitude
285.619 km
Semi-major axis
6,665.358 km
Eccentricity
0.00024
Inclination
42.9994°
RAAN
264.7824°
Arg. of periapsis
274.0224°
True anomaly
64.78392°
Mean anomaly
64.759°
Eccentric anomaly
64.77146°
Mean motion
3.98848 °/min
Orbital period
90.26 mins
BSTAR
-0.0033568
Loading maneuver chart data...
Computing Atmospheric mass density...
Loading historical data...
Loading historical data...
Loading historical data...
Loading historical data...
Loading historical data...
Loading historical data...
Loading historical data...

Documentation

Showing up to 5 results
|